TimeEST,TemperatureF,Dew PointF,Humidity,Sea Level PressureIn,VisibilityMPH,Wind Direction,Wind SpeedMPH,Gust SpeedMPH,PrecipitationIn,Events,Conditions,WindDirDegrees,DateUTC
12:15 AM,28.4,19.4,69,30.30,10.0,Calm,Calm,-,N/A,,Clear,0,2013-02-22 05:15:00
12:35 AM,26.6,19.4,74,30.32,10.0,NW,3.5,-,N/A,,Clear,310,2013-02-22 05:35:00
12:55 AM,26.6,19.4,74,30.31,10.0,Calm,Calm,-,N/A,,Clear,0,2013-02-22 05:55:00
1:15 AM,26.6,19.4,74,30.30,10.0,NW,3.5,-,N/A,,Clear,310,2013-02-22 06:15:00
1:35 AM,28.4,19.4,69,30.32,10.0,West,3.5,-,N/A,,Clear,260,2013-02-22 06:35:00
1:55 AM,28.4,19.4,69,30.32,10.0,Calm,Calm,-,N/A,,Clear,0,2013-02-22 06:55:00
2:15 AM,28.4,19.4,69,30.33,10.0,Calm,Calm,-,N/A,,Clear,0,2013-02-22 07:15:00
2:35 AM,26.6,19.4,74,30.33,10.0,Calm,Calm,-,N/A,,Clear,0,2013-02-22 07:35:00
2:55 AM,28.4,19.4,69,30.34,10.0,SW,3.5,-,N/A,,Clear,230,2013-02-22 07:55:00
3:15 AM,28.4,19.4,69,30.34,10.0,Calm,Calm,-,N/A,,Clear,0,2013-02-22 08:15:00
3:35 AM,28.4,19.4,69,30.35,10.0,Calm,Calm,-,N/A,,Clear,0,2013-02-22 08:35:00
3:55 AM,26.6,21.2,80,30.34,10.0,Calm,Calm,-,N/A,,Clear,0,2013-02-22 08:55:00
4:15 AM,26.6,21.2,80,30.33,10.0,Calm,Calm,-,N/A,,Clear,0,2013-02-22 09:15:00
4:35 AM,26.6,21.2,80,30.30,10.0,East,3.5,-,N/A,,Clear,90,2013-02-22 09:35:00
4:55 AM,28.4,21.2,74,30.30,10.0,East,3.5,-,N/A,,Clear,100,2013-02-22 09:55:00
5:15 AM,28.4,21.2,74,30.33,10.0,Calm,Calm,-,N/A,,Clear,0,2013-02-22 10:15:00
5:35 AM,28.4,21.2,74,30.31,10.0,Calm,Calm,-,N/A,,Scattered Clouds,0,2013-02-22 10:35:00
5:55 AM,28.4,21.2,74,30.31,10.0,Calm,Calm,-,N/A,,Mostly Cloudy,0,2013-02-22 10:55:00
6:15 AM,28.4,21.2,74,30.31,10.0,Calm,Calm,-,N/A,,Mostly Cloudy,0,2013-02-22 11:15:00
6:35 AM,28.4,21.2,74,30.32,10.0,Calm,Calm,-,N/A,,Overcast,0,2013-02-22 11:35:00
7:15 AM,28.4,21.2,74,30.32,10.0,ENE,3.5,-,N/A,,Overcast,70,2013-02-22 12:15:00
7:35 AM,28.4,19.4,69,30.32,10.0,Calm,Calm,-,N/A,,Overcast,0,2013-02-22 12:35:00
7:55 AM,28.4,21.2,74,30.30,10.0,Calm,Calm,-,N/A,,Mostly Cloudy,0,2013-02-22 12:55:00
8:15 AM,28.4,21.2,74,30.30,10.0,Calm,Calm,-,N/A,,Mostly Cloudy,0,2013-02-22 13:15:00
8:35 AM,30.2,21.2,69,30.30,10.0,Calm,Calm,-,N/A,,Overcast,0,2013-02-22 13:35:00
8:55 AM,30.2,21.2,69,30.30,10.0,East,5.8,-,N/A,,Overcast,90,2013-02-22 13:55:00
9:15 AM,32.0,21.2,64,30.28,10.0,East,5.8,-,N/A,,Overcast,100,2013-02-22 14:15:00
9:35 AM,32.0,21.2,64,30.28,10.0,ESE,8.1,-,N/A,,Overcast,120,2013-02-22 14:35:00
9:55 AM,32.0,21.2,64,30.28,10.0,SE,8.1,-,N/A,,Overcast,130,2013-02-22 14:55:00
10:15 AM,32.0,21.2,64,30.28,10.0,SSE,11.5,-,N/A,,Overcast,160,2013-02-22 15:15:00
10:35 AM,30.2,21.2,69,30.28,10.0,SE,12.7,17.3,N/A,,Overcast,130,2013-02-22 15:35:00
10:55 AM,30.2,21.2,69,30.29,10.0,SE,6.9,-,N/A,,Overcast,130,2013-02-22 15:55:00
11:15 AM,30.2,23.0,75,30.29,10.0,SE,9.2,-,N/A,,Overcast,130,2013-02-22 16:15:00
11:35 AM,32.0,23.0,69,30.29,7.0,SE,8.1,-,N/A,,Overcast,140,2013-02-22 16:35:00
11:55 AM,30.2,26.6,86,30.28,10.0,SE,8.1,-,N/A,,Overcast,140,2013-02-22 16:55:00
12:15 PM,30.2,26.6,86,30.27,4.0,SE,6.9,-,N/A,,Overcast,140,2013-02-22 17:15:00
12:35 PM,30.2,28.4,93,30.26,4.0,SE,6.9,-,N/A,,Overcast,130,2013-02-22 17:35:00
12:55 PM,30.2,28.4,93,30.26,10.0,SE,5.8,-,N/A,,Overcast,140,2013-02-22 17:55:00
1:15 PM,30.2,28.4,93,30.25,10.0,SE,5.8,-,N/A,,Overcast,130,2013-02-22 18:15:00
1:35 PM,30.2,28.4,93,30.25,10.0,ESE,5.8,-,N/A,,Overcast,120,2013-02-22 18:35:00
1:55 PM,30.2,28.4,93,30.23,10.0,SE,6.9,-,N/A,,Overcast,130,2013-02-22 18:55:00
2:15 PM,30.2,28.4,93,30.23,10.0,SE,9.2,-,N/A,,Overcast,130,2013-02-22 19:15:00
2:35 PM,30.2,28.4,93,30.23,10.0,SE,10.4,-,N/A,,Overcast,140,2013-02-22 19:35:00
2:55 PM,32.0,28.4,87,30.22,10.0,SSE,6.9,-,N/A,,Overcast,150,2013-02-22 19:55:00
3:15 PM,32.0,28.4,87,30.22,10.0,SSE,6.9,-,N/A,,Overcast,150,2013-02-22 20:15:00
3:35 PM,32.0,28.4,87,30.21,10.0,SE,5.8,-,N/A,,Overcast,140,2013-02-22 20:35:00
3:55 PM,32.0,28.4,87,30.22,10.0,SE,4.6,-,N/A,,Overcast,130,2013-02-22 20:55:00
4:15 PM,32.0,28.4,87,30.21,10.0,ESE,4.6,-,N/A,,Overcast,120,2013-02-22 21:15:00
4:35 PM,32.0,28.4,87,30.21,10.0,SSE,6.9,-,N/A,,Overcast,150,2013-02-22 21:35:00
4:55 PM,32.0,28.4,87,30.20,10.0,SSE,8.1,-,N/A,,Overcast,150,2013-02-22 21:55:00
5:15 PM,32.0,28.4,87,30.20,10.0,SSE,5.8,-,N/A,,Overcast,150,2013-02-22 22:15:00
5:35 PM,32.0,28.4,87,30.20,10.0,SSE,6.9,-,N/A,,Overcast,150,2013-02-22 22:35:00
5:55 PM,32.0,28.4,87,30.20,10.0,SSE,8.1,-,N/A,,Overcast,160,2013-02-22 22:55:00
6:15 PM,32.0,28.4,87,30.20,10.0,SE,6.9,-,N/A,,Overcast,130,2013-02-22 23:15:00
6:35 PM,32.0,28.4,87,30.19,10.0,East,5.8,-,N/A,,Overcast,100,2013-02-22 23:35:00
6:55 PM,32.0,28.4,87,30.19,10.0,ESE,5.8,-,N/A,,Overcast,120,2013-02-22 23:55:00
7:15 PM,32.0,28.4,87,30.19,10.0,ESE,5.8,-,N/A,,Overcast,120,2013-02-23 00:15:00
7:35 PM,32.0,30.2,93,30.20,10.0,ESE,5.8,-,N/A,,Overcast,120,2013-02-23 00:35:00
7:55 PM,32.0,30.2,93,30.18,10.0,SE,6.9,-,N/A,,Overcast,130,2013-02-23 00:55:00
8:15 PM,32.0,30.2,93,30.18,10.0,SE,6.9,-,N/A,,Overcast,130,2013-02-23 01:15:00
8:35 PM,32.0,30.2,93,30.18,10.0,SE,5.8,-,N/A,,Overcast,130,2013-02-23 01:35:00
8:55 PM,32.0,30.2,93,30.18,10.0,SE,4.6,-,N/A,,Overcast,130,2013-02-23 01:55:00
9:15 PM,32.0,30.2,93,30.17,10.0,ESE,4.6,-,N/A,,Overcast,120,2013-02-23 02:15:00
9:35 PM,32.0,30.2,93,30.17,10.0,SSE,8.1,-,N/A,,Overcast,150,2013-02-23 02:35:00
9:55 PM,32.0,28.4,87,30.16,10.0,SE,6.9,-,N/A,,Overcast,140,2013-02-23 02:55:00
10:15 PM,32.0,28.4,87,30.16,10.0,SSE,8.1,-,N/A,,Overcast,150,2013-02-23 03:15:00
10:35 PM,32.0,28.4,87,30.17,10.0,SSE,6.9,-,N/A,,Overcast,160,2013-02-23 03:35:00
10:55 PM,32.0,28.4,87,30.17,10.0,SSE,6.9,-,N/A,,Overcast,160,2013-02-23 03:55:00
11:15 PM,32.0,30.2,93,30.16,10.0,SE,5.8,-,N/A,,Overcast,140,2013-02-23 04:15:00
11:35 PM,32.0,30.2,93,30.15,10.0,SE,6.9,-,N/A,,Overcast,140,2013-02-23 04:35:00
11:55 PM,32.0,30.2,93,30.15,10.0,SE,5.8,-,N/A,,Overcast,140,2013-02-23 04:55:00